User: anonymous   Login
Location: Unspecified
(0.0000°N, 0.0000°E)
Time: 23:28:25
(UTC+00:00)
Language:

GRACE-FO 2 - Orbit

View from above orbital plane
View from above orbital plane
View from above satellite
View from above satellite

Ground track
Ground track

The orbit data is extracted from the following two-line orbital elements,

1 43477U 18047B   22267.57995368 +.00002498  00000-0 +10056-3 0    07
2 43477  88.9950  25.0542 0013424 343.8819 116.5912 15.24757122241529
Epoch (UTC): 24 September 2022 13:55:07
Eccentricity: 0.0013424
inclination: 88.9950°
perigee height: 482 km
apogee height: 501 km
right ascension of ascending node: 25.0542°
argument of perigee: 343.8819°
revolutions per day: 15.24757122
mean anomaly at epoch: 116.5912°
orbit number at epoch: 24152

The dashed part of the orbit path shows where the satellite is in the earth's shadow,  

DLR